ATLAS 5 CENTAUR DEB, 44674

Orbit data source: Space-Track

ATLAS 5 CENTAUR DEB, 44674 is space debris in HEO originally from a launch on Wed, 17 Oct 2018 UTC launched from the Air Force Eastern Test Range (AFETR). Debris objects in space refer to the collection of defunct objects orbiting the Earth. Examples of debris include non-operational satellites, rocket bodies, and fragments generated from explosions, collisions, or faulty payload assembly.

Loading next visibility...
Identifier
44674, 2018-079AL
Orbit
HEO
Last TLE update
3 days ago
Origin
Flag of USUnited Launch Alliance/Lockheed Martin (US)
Manufacturer
ULA Decatur
Mission
Spacecraft
Bus & Motor
Unknown
Mass
Unknown
Launch date (UTC)
2018-10-17 (7 years ago)
Launch vehicle
Unknown
Launch site
Air Force Eastern Test Range (AFETR)
Object type
Payload
Rocket body
Debris
Shape & HBR
Unknown
Radar Cross Section
RCS unknown

Expand to show TLE details & history

TLE from 3 days ago
0 ATLAS 5 CENTAUR DEB
1 44674U 18079AL  25179.40013552 -.00000124  00000-0  00000-0 0  9992
2 44674  12.5743  68.8089 4371918 272.5598  39.6672  1.93799060 42686
Epoch: 2025-06-28T09:36Z
TLE epoch observation values (Epoch: 2025-06-28T09:36:11.708Z)
Latitude
0.00006°
Longitude
7.99419°
Altitude
15,210.297 km
Speed
4.718 km/s
True Right ascension
04h 35m 07s
True Declination
0° 00' 00"
Sunlit
Object was in daylight at epoch
Visualization orbit readout
Latitude
-10.76011°
Longitude
-114.18047°
Altitude
9,783.25 km
Speed
5.887 km/s
Apparent Right ascension
19h 53m 14s
Apparent Declination
-31° 53' 04"
Sunlit
Object is in daylight
Visualization observer readout
Local Sidereal Time
21:44:46
Azimuth
204.124° SW
Elevation
13.693°
Doppler factor
1
Orbital elements
Apogee altitude
32,680.355 km
Perigee altitude
8,917.274 km
Semi-major axis
27,176.951 km
Eccentricity
0.43719
Inclination
12.5743°
RAAN
68.8089°
Arg. of periapsis
272.5598°
True anomaly
Unknown
Mean anomaly
39.6672°
Eccentric anomaly
Unknown
Mean motion
0.48444 °/min
Orbital period
743.12 mins
BSTAR
0
Loading maneuver chart data...
Loading SW <> Apogee altitude chart data...

ATLAS 5 CENTAUR DEB Visibility forecast

Observer location: undefined°, undefined°

Span
Click to sort rows by Start time (UTC) header in descending order
Start Az.
Max El. time (UTC)
Max El. Az.
Max El.
End time (UTC)
End Az.
38 mins2025-07-01 10:06:22.858Z204.105° SW2025-07-01 10:17:22.858Z189.937° SSW13.793°2025-07-01 10:44:22.858Z152.806° SSE
|